, TX

(GMT )
Port Isabel

Weather History for KPIL - January, 2013

Change the Weather History Date:

Friday, January 11, 2013

  Actual Average Record
Temperature  
Mean Temperature 68 °F -  
Max Temperature 81 °F - - ()
Min Temperature 55 °F - - ()
Cooling Degree Days 3    
Growing Degree Days 18 (Base 50)    
Moisture  
Dew Point 62 °F    
Average Humidity 91    
Maximum Humidity 100    
Minimum Humidity 62    
Precipitation  
Precipitation 0.00 in - - ()
Sea Level Pressure  
Sea Level Pressure 29.94 in    
Wind  
Wind Speed 6 mph (SSE)    
Max Wind Speed 18 mph    
Max Gust Speed 25 mph    
Visibility 4 miles    
Events Fog    
T = Trace of Precipitation, MM = Missing Value Source: NWS Daily Summary

Daily Weather History Graph

Daily Weather History Graph

Search for Another Location

Airport or City:

Trip Planner

Search our weather history database for the weather conditions in past years. The results will help you decide how hot, cold, wet, or windy it might be!

Date:

Astronomy

Jan. 11, 2013 Rise Set
Actual Time 7:18 AM CST 5:56 PM CST
Civil Twilight 6:53 AM CST 6:21 PM CST
Nautical Twilight 6:25 AM CST 6:50 PM CST
Astronomical Twilight 5:57 AM CST 7:18 PM CST
Moon 6:56 AM CST (1/11) 6:10 PM CST (1/11)
Length of Visible Light 11h 28m
Length of Day
10h 38m
Waning Crescent, 0% of the Moon is Illuminated
Jan 11
Waning Crescent
Jan 11
New
Jan 18
First Quarter
Jan 26
Full
Feb 3
Last Quarter

Hourly Weather History & Observations

Time (CST) Temp. Heat Index Dew Point Humidity Pressure Visibility Wind Dir Wind Speed Gust Speed Precip Events Conditions
12:53 AM 57.9 °F - 55.9 °F 93% 30.05 in 7.0 mi SE 3.5 mph - N/A   Clear
1:17 AM 57.2 °F - 55.4 °F 94% 30.06 in 1.8 mi ESE 3.5 mph - N/A   Clear
1:29 AM 57.2 °F - 55.4 °F 94% 30.05 in 0.8 mi Calm Calm - N/A   Clear
1:36 AM 57.2 °F - 55.4 °F 94% 30.05 in 1.2 mi Calm Calm - N/A   Clear
1:53 AM 55.9 °F - 55.0 °F 97% 30.04 in 0.8 mi Calm Calm - N/A   Clear
2:15 AM 57.2 °F - 55.4 °F 94% 30.03 in 1.5 mi SE 5.8 mph - N/A   Clear
2:50 AM 57.2 °F - 55.4 °F 94% 30.02 in 3.0 mi SE 6.9 mph - N/A   Clear
2:53 AM 55.9 °F - 55.0 °F 97% 30.02 in 5.0 mi SE 5.8 mph - N/A   Clear
3:53 AM 59.0 °F - 57.0 °F 93% 30.00 in 4.0 mi SSE 4.6 mph - N/A   Clear
4:05 AM 57.2 °F - 57.2 °F 100% 30.00 in 2.5 mi South 5.8 mph - N/A   Clear
4:14 AM 60.8 °F - 59.0 °F 94% 29.99 in 5.0 mi South 5.8 mph - N/A   Clear
4:32 AM 59.0 °F - 57.2 °F 94% 29.98 in 1.8 mi SSE 4.6 mph - N/A   Partly Cloudy
4:45 AM 57.2 °F - 57.2 °F 100% 29.98 in 1.0 mi South 3.5 mph - N/A   Mist
4:53 AM 57.9 °F - 55.9 °F 93% 29.98 in 1.0 mi Calm Calm - N/A   Mist
5:34 AM 55.4 °F - 55.4 °F 100% 29.97 in 1.0 mi SSE 3.5 mph - N/A   Mist
5:41 AM 57.2 °F - 55.4 °F 94% 29.97 in 0.8 mi SSE 3.5 mph - N/A   Mist
5:53 AM 57.9 °F - 55.9 °F 93% 29.97 in 0.5 mi SSE 3.5 mph - N/A Fog Fog
6:03 AM 57.2 °F - 55.4 °F 94% 29.97 in 0.8 mi SE 3.5 mph - N/A   Overcast
6:07 AM 57.2 °F - 55.4 °F 94% 29.97 in 1.0 mi SSE 3.5 mph - N/A   Overcast
6:10 AM 57.2 °F - 55.4 °F 94% 29.97 in 0.8 mi SSE 3.5 mph - N/A   Overcast
6:38 AM 57.2 °F - 57.2 °F 100% 29.97 in 0.8 mi South 3.5 mph - N/A   Overcast
6:45 AM 59.0 °F - 57.2 °F 94% 29.97 in 1.0 mi South 3.5 mph - N/A   Overcast
6:53 AM 59.0 °F - 57.9 °F 96% 29.96 in 0.8 mi Calm Calm - N/A   Overcast
7:15 AM 59.0 °F - 57.2 °F 94% 29.96 in 0.2 mi Calm Calm - N/A Fog Fog
7:28 AM 57.2 °F - 55.4 °F 94% 29.97 in 0.5 mi Calm Calm - N/A Fog Fog
7:39 AM 57.2 °F - 55.4 °F 94% 29.96 in 0.2 mi SSE 3.5 mph - N/A Fog Fog
7:53 AM 57.9 °F - 57.0 °F 97% 29.97 in 0.2 mi ESE 3.5 mph - N/A Fog Fog
8:02 AM 59.0 °F - 57.2 °F 94% 29.98 in 0.5 mi Calm Calm - N/A Fog Fog
8:22 AM 60.8 °F - 60.8 °F 100% 29.98 in 2.0 mi South 3.5 mph - N/A   Mostly Cloudy
8:53 AM 64.0 °F - 62.1 °F 93% 29.99 in 6.0 mi SE 4.6 mph - N/A   Clear
9:53 AM 71.1 °F - 66.9 °F 87% 29.98 in 7.0 mi SSE 11.5 mph - N/A   Partly Cloudy
10:53 AM 73.9 °F - 68.0 °F 82% 29.96 in 8.0 mi SSE 13.8 mph - N/A   Partly Cloudy
11:53 AM 78.1 °F - 66.9 °F 68% 29.93 in 8.0 mi South 17.3 mph 23.0 mph N/A   Clear
12:53 PM 81.0 °F 83.3 °F 66.9 °F 62% 29.88 in 9.0 mi South 16.1 mph - N/A   Clear
2:53 PM 79.0 °F - 66.9 °F 66% 29.84 in 9.0 mi South 17.3 mph 23.0 mph N/A   Clear
3:53 PM 78.1 °F - 68.0 °F 71% 29.83 in 9.0 mi SSE 17.3 mph - N/A   Clear
4:53 PM 75.0 °F - 68.0 °F 79% 29.83 in 8.0 mi SSE 18.4 mph - N/A   Clear
5:53 PM 73.9 °F - 69.1 °F 85% 29.82 in 7.0 mi SSE 16.1 mph - N/A   Partly Cloudy
6:20 PM 73.4 °F - 69.8 °F 88% 29.81 in 8.0 mi SE 16.1 mph 20.7 mph N/A   Mostly Cloudy
6:41 PM 71.6 °F - 69.8 °F 94% 29.81 in 7.0 mi SSE 16.1 mph - N/A   Scattered Clouds
6:53 PM 72.0 °F - 70.0 °F 93% 29.81 in 7.0 mi SSE 16.1 mph - N/A   Scattered Clouds
7:08 PM 73.4 °F - 69.8 °F 88% 29.81 in 7.0 mi SSE 17.3 mph - N/A   Mostly Cloudy
7:53 PM 72.0 °F - 70.0 °F 93% 29.83 in 7.0 mi SSE 13.8 mph - N/A   Mostly Cloudy
8:29 PM 71.6 °F - 69.8 °F 94% 29.84 in 7.0 mi SSE 15.0 mph - N/A   Scattered Clouds
8:53 PM 72.0 °F - 69.1 °F 91% 29.84 in 7.0 mi SSE 15.0 mph - N/A   Partly Cloudy
9:53 PM 73.0 °F - 70.0 °F 90% 29.83 in 7.0 mi SSE 18.4 mph 25.3 mph N/A   Clear
11:30 PM 73.4 °F - 69.8 °F 88% 29.84 in 6.0 mi SSE 17.3 mph 25.3 mph N/A   Overcast
11:37 PM 73.4 °F - 69.8 °F 88% 29.84 in 6.0 mi South 12.7 mph - N/A   Overcast
11:46 PM 73.4 °F - 69.8 °F 88% 29.85 in 6.0 mi South 11.5 mph - N/A   Overcast
11:53 PM 73.0 °F - 70.0 °F 90% 29.84 in 6.0 mi South 13.8 mph - N/A   Overcast